Flag for U.S.A. Weather past 2 weeks in Woodstock, New York, U.S.A.

Now
37 °F

Mostly cloudy.


Feels Like: 30 °F
Forecast: 25 / 36 °F
Wind: 10 mph from North

Location: Dutchess County Airport

Current Time: Dec 19, 2014 at 12:33:10 PM

Latest Report: Dec 19, 2014 at 11:53 AM


Visibility: 10 mi

Pressure: 30.02 "Hg

Humidity: 52%

Dew point: 21 °F

Location of WoodstockLocation

Historic Weather in Woodstock — Graph

°F

Woodstock temperature yesterday

Maximum temperature yesterday: 42 °F (at 12:53 PM)
Minimum temperature yesterday: 36 °F (at 8:53 PM)
Average temperature yesterday: 39 °F

Past Weeks' High & Low Weather Summary

 TemperatureHumidityPressure
High51 °F (Dec 17, 12:53 PM)97% (Dec 6, 1:53 AM)30.74 "Hg (Dec 6, 1:53 AM)
Low17 °F (Dec 8, 5:53 AM)32% (Dec 7, 2:53 PM)29.55 "Hg (Dec 11, 12:53 AM)
Average35 °F73%30.06 "Hg
* Reported Dec 4 10:53 AM — Dec 19 10:53 AM, Woodstock, Weather by CustomWeather, © 2014

Note: Actual official high and low records may vary slightly from our data, if they occured in-between our weather recording intervals... More about our weather records

Advertising

Woodstock weather history for previous 24 hours

 ConditionsComfort  
Time TempWeatherWind HumidityBarometerVisibility
10:53 AM
Dec 19
35 °FOvercast.9 mph54%30.04 "Hg10 mi
9:53 AM35 °FOvercast.7 mph54%30.05 "Hg10 mi
8:53 AM34 °FOvercast.9 mph54%30.03 "Hg10 mi
7:53 AM35 °FOvercast.8 mph61%30.01 "Hg10 mi
6:53 AM35 °FOvercast.7 mph64%29.98 "Hg10 mi
5:53 AM35 °FOvercast.No wind67%29.96 "Hg10 mi
4:53 AM36 °FOvercast.5 mph62%29.95 "Hg10 mi
3:53 AM36 °FOvercast.5 mph64%29.94 "Hg10 mi
2:53 AM36 °FOvercast.7 mph64%29.95 "Hg10 mi
1:53 AM37 °FOvercast.5 mph62%29.95 "Hg10 mi
12:53 AM37 °FOvercast.6 mph62%29.94 "Hg10 mi
11:53 PM
Dec 18
37 °FOvercast.6 mph62%29.94 "Hg10 mi
10:53 PM37 °FOvercast.3 mph65%29.95 "Hg10 mi
9:53 PM37 °FMostly cloudy.No wind65%29.93 "Hg10 mi
8:53 PM36 °FPassing clouds.5 mph64%29.93 "Hg10 mi
7:53 PM37 °FOvercast.7 mph65%29.94 "Hg10 mi
6:53 PM37 °FPassing clouds.12 mph62%29.94 "Hg10 mi
5:53 PM38 °FMostly cloudy.8 mph60%29.94 "Hg10 mi
4:53 PM39 °FOvercast.9 mph57%29.95 "Hg10 mi
3:53 PM40 °FOvercast.14 mph58%29.93 "Hg10 mi
2:53 PM41 °FOvercast.10 mph55%29.90 "Hg10 mi
1:53 PM42 °FPartly sunny.9 mph53%29.89 "Hg10 mi
12:53 PM42 °FScattered clouds.12 mph51%29.90 "Hg10 mi
Weather by CustomWeather, © 2014

See weather overviewHow to use our weather pages